Regional Weather Roundup
Issued by NWS Charleston, WV

Home | Current Version | Previous Version | Graphics & Text | Print | Product List | Glossary On
Versions: 1 2 3 4 5 6 7 8 9 10 11 12 13 14 15 16 17 18 19 20 21 22 23 24 25 26 27 28 29 30 31 32 33 34 35 36 37 38 39 40 41 42 43 44 45 46 47 48 49 50
000
ASUS41 KRLX 201110
RWRRLX
West Virginia Regional Weather Roundup
National Weather Service Charleston WV
700 AM EDT SAT SEP 20 2014

Note: "fair" indicates few or no clouds below 12,000 feet with no
significant weather and/or obstructions to visibility.

WVZ003-201200-
Northern Panhandle of West Virginia

CITY           SKY/WX    TMP DP  RH WIND       PRES   REMARKS
WHEELING       PTCLDY    58  54  86 S9        30.14R
$$

WVZ009-201200-
Northwest West Virginia

CITY           SKY/WX    TMP DP  RH WIND       PRES   REMARKS
PARKERSBURG    PTCLDY    61  56  83 S6        30.16S
$$

WVZ006-201200-
Western West Virginia

CITY           SKY/WX    TMP DP  RH WIND       PRES   REMARKS
HUNTINGTON     PTCLDY    61  58  90 CALM      30.13R
$$

WVZ015-201200-
West Central West Virginia

CITY           SKY/WX    TMP DP  RH WIND       PRES   REMARKS
CHARLESTON     PTCLDY    59  58  96 CALM      30.16R
$$

WVZ031-201200-
North Central West Virginia

CITY           SKY/WX    TMP DP  RH WIND       PRES   REMARKS
CLARKSBURG     CLEAR     54  52  93 CALM      30.17R
MORGANTOWN     CLEAR     60  53  77 CALM      30.18R
$$

WVZ035-042-045-201200-
South Central West Virginia

CITY           SKY/WX    TMP DP  RH WIND       PRES   REMARKS
BECKLEY        CLEAR     59  54  83 SE7       30.24R
BLUEFIELD      CLEAR     61  54  77 VRB6      30.25F
LEWISBURG      CLOUDY    61  55  79 CALM      30.27S
$$

WVZ047-201200-
Northern Mountains of West Virginia

CITY           SKY/WX    TMP DP  RH WIND       PRES   REMARKS
ELKINS         PTCLDY    60  55  83 VRB7      30.23R
$$

WVZ052-201200-
Eastern Panhandle of West Virginia

CITY           SKY/WX    TMP DP  RH WIND       PRES   REMARKS
MARTINSBURG    CLEAR     61  57  87 SE5       30.25S
PETERSBURG     CLOUDY    59  57  93 E3        30.23S
$$


USA.gov is the U.S. government's official web portal to all federal, state and local government web resources and services.